Wind_Speed
92 92 92 94 95 96 97 97 98 99 101 103 105 106 107 108 108 108 108 108 108 108 109 109 109 109 109 109 110 110 111 111 111 111 111 111 111 111 111 112 113 113 114 115 116 117 118 118 119 119 120 120 121 122 122 122 123 124 125 126 127 129 130 130 128 124 119 117 117 117 119 119 119 119 120 121 120 118 117 116 116 115 115 115 115
95 96 97 98 99 99 100 101 102 103 105 106 108 109 110 110 110 111 111 110 110 110 111 111 111 111 111 111 112 112 113 114 113 113 112 112 112 112 113 114 115 115 116 117 118 119 119 120 121 121 122 122 122 123 123 124 125 126 127 128 129 130 132 132 130 128 124 120 119 119 121 123 122 122 123 123 121 119 118 118 119 119 119 120 121
99 100 101 102 102 103 104 105 106 107 108 109 111 111 112 112 112 113 113 113 112 112 112 112 112 112 112 113 114 115 116 116 115 114 113 113 114 114 115 116 117 117 118 119 120 121 122 122 123 123 123 124 124 124 125 126 126 127 128 129 130 131 132 132 132 131 129 124 122 121 123 124 124 124 124 125 124 122 121 121 121 122 123 125 127
103 104 105 105 106 107 108 109 110 111 111 112 113 113 113 114 114 114 114 114 114 113 113 113 113 113 114 114 116 117 117 117 116 115 115 115 115 116 117 118 119 119 120 121 122 123 123 124 124 125 125 125 125 125 126 127 128 128 129 130 131 131 131 132 133 133 132 129 126 124 125 125 125 125 126 126 126 125 125 125 126 127 128 129 130
107 107 108 109 110 111 112 112 112 113 113 113 114 114 115 115 115 116 115 115 114 114 114 114 114 114 115 117 118 119 118 118 117 116 117 117 117 118 119 120 120 121 122 123 124 125 125 126 126 126 126 125 126 126 127 128 129 130 130 130 131 131 131 132 134 135 135 133 131 128 126 126 126 126 128 129 130 130 129 130 131 132 132 131 131
110 111 112 112 113 113 113 114 114 114 115 115 115 116 116 116 116 116 115 115 115 115 115 115 115 116 118 119 120 120 119 119 118 118 118 118 119 119 120 121 122 123 125 125 126 126 126 127 127 127 126 126 126 127 128 129 130 130 131 131 131 131 132 133 135 136 136 135 133 131 129 128 127 127 130 133 135 136 136 135 134 134 134 133 133
113 113 114 114 114 114 114 115 115 115 116 116 116 117 117 117 116 116 116 115 115 115 116 116 117 118 119 120 120 120 120 120 119 120 120 120 121 121 122 124 125 126 127 127 128 127 127 127 127 127 127 128 128 129 130 131 131 131 131 131 132 132 133 135 136 136 136 135 134 133 132 130 130 131 133 136 139 141 141 140 137 135 135 135 134
114 114 114 115 115 115 116 116 116 116 117 117 117 117 117 117 116 116 116 116 116 117 118 118 119 119 120 120 121 121 121 121 121 121 122 122 123 123 124 126 127 128 129 128 128 128 128 128 128 129 129 130 131 132 132 132 131 131 132 133 134 135 135 136 136 136 136 135 135 135 134 134 134 136 138 139 141 142 142 142 140 138 136 133 130
115 115 115 115 116 116 116 117 117 117 117 117 117 117 116 116 116 116 117 117 118 118 119 120 120 121 121 122 122 122 122 122 122 123 123 124 125 126 127 128 129 129 128 128 127 128 128 129 130 130 131 132 132 132 132 132 133 133 134 136 137 137 136 136 136 136 137 136 136 137 138 139 139 140 141 141 142 142 142 141 140 137 134 130 126
115 115 115 115 116 116 116 117 117 117 117 117 117 116 116 117 117 118 118 119 120 120 121 122 122 123 124 124 124 124 124 124 124 125 126 126 127 128 128 129 129 128 127 127 127 128 129 130 131 132 132 132 132 132 133 134 135 136 137 138 138 138 137 137 137 138 138 139 139 141 142 142 142 142 142 142 142 141 140 138 136 134 131 127 122
115 115 115 116 117 117 118 118 118 117 117 118 118 118 119 119 120 121 122 122 123 123 124 124 125 125 126 126 126 125 125 126 126 127 127 128 128 128 128 128 128 127 127 128 129 130 131 131 132 132 132 132 132 133 134 135 136 137 137 137 138 138 139 139 139 140 142 142 143 144 144 144 143 143 143 142 141 139 137 135 133 130 128 124 120
119 119 119 120 120 120 120 120 120 120 121 121 122 123 123 123 124 125 125 125 126 126 126 127 127 127 127 127 127 127 127 128 128 128 128 128 128 128 128 127 127 128 129 130 130 131 131 131 132 132 133 133 134 135 136 136 136 136 136 136 137 139 140 142 143 144 145 145 145 144 145 145 144 143 142 141 139 137 135 133 129 127 125 122 120
122 122 122 123 123 123 123 123 124 124 124 125 125 125 126 126 126 127 127 127 127 127 128 128 128 128 128 128 128 128 128 128 128 128 127 127 128 128 128 128 129 129 130 131 131 131 132 132 132 133 134 136 136 136 136 136 135 135 136 136 138 139 142 144 146 146 147 147 146 145 144 144 143 142 142 141 139 136 133 130 126 124 122 120 118
123 123 124 124 124 125 125 125 126 126 126 126 126 126 127 127 127 127 127 128 128 129 129 129 129 129 129 129 129 129 128 128 127 127 127 128 128 128 129 129 130 131 131 131 132 132 133 133 134 136 137 137 137 137 136 136 135 136 137 138 139 141 143 144 145 146 146 146 146 145 144 144 144 142 141 139 137 134 131 128 126 123 121 118 116
124 124 125 125 125 126 126 126 126 126 126 127 127 127 127 128 128 128 129 129 130 130 130 130 130 129 129 129 128 128 127 127 127 127 128 128 129 129 130 130 131 132 132 132 133 134 135 136 137 137 138 138 138 138 138 137 137 137 138 139 140 141 142 143 144 144 144 145 145 145 145 145 144 141 139 137 135 134 131 129 127 126 122 118 115
124 125 125 125 126 126 126 126 126 126 126 127 127 128 128 129 129 130 130 130 130 130 129 129 129 128 128 128 127 127 128 128 128 129 129 129 129 130 131 131 132 132 133 134 135 136 136 137 137 137 138 139 140 140 140 140 140 139 139 139 138 138 139 140 141 142 143 144 145 146 146 145 143 141 139 139 138 136 133 130 129 127 124 119 114
123 123 124 124 124 125 125 125 125 126 126 127 128 128 129 129 130 130 129 129 129 129 128 128 128 128 128 128 128 128 129 129 129 130 130 130 130 131 132 132 133 134 134 135 135 136 136 136 137 138 139 140 141 142 142 142 141 140 139 138 137 136 136 137 139 140 142 143 144 145 145 144 143 142 141 141 140 138 136 133 130 127 123 118 112
121 122 123 124 124 125 125 125 126 126 127 128 128 129 129 129 129 129 128 128 128 128 128 128 128 128 129 129 129 130 130 130 131 131 131 131 131 132 132 133 133 134 134 134 134 135 136 137 139 139 140 141 142 142 142 142 141 140 139 138 137 136 136 137 137 138 139 141 142 143 143 144 143 142 141 140 139 137 135 133 129 125 121 116 111
122 123 124 125 125 126 126 126 126 127 127 127 128 128 128 128 128 128 128 128 128 128 128 129 129 130 130 130 130 131 131 131 131 132 132 132 132 132 133 133 133 133 133 133 135 136 137 139 140 140 141 141 141 141 141 141 140 140 139 139 138 138 138 137 138 138 138 138 138 139 140 140 140 139 138 137 135 134 132 129 126 123 119 114 110
123 124 124 125 125 125 126 126 126 126 126 127 127 127 127 127 127 127 128 128 128 128 129 129 129 129 130 130 131 131 132 132 132 132 132 132 132 132 132 132 132 132 133 134 136 137 138 139 139 139 139 139 138 138 139 139 140 140 141 141 141 140 140 139 139 139 138 137 137 136 136 136 135 135 134 133 132 130 128 125 123 120 117 113 109
123 124 124 124 125 125 125 125 126 126 126 126 126 126 126 127 127 127 127 127 128 128 129 129 129 130 131 132 132 132 132 132 132 132 132 132 132 133 133 133 133 134 134 135 136 136 136 137 137 137 137 137 137 137 138 139 140 141 142 142 143 143 143 142 142 141 140 139 137 135 134 132 131 130 130 129 128 127 124 122 120 118 115 112 109
123 123 123 124 124 124 125 125 125 125 125 126 126 126 126 126 127 127 127 128 128 129 129 130 130 131 131 131 132 131 131 131 131 132 132 132 133 133 133 133 134 134 134 134 134 134 135 135 135 135 135 136 137 138 139 139 140 141 142 143 144 144 145 144 144 143 141 139 136 134 133 131 129 127 126 125 124 123 121 119 117 115 113 111 108
122 122 122 122 122 122 122 122 123 123 124 124 124 124 125 125 126 126 127 127 127 128 128 129 129 129 130 130 130 130 131 131 131 131 132 132 132 133 133 133 133 133 133 133 133 133 133 133 134 134 135 136 137 138 139 140 141 142 143 143 144 145 145 145 145 143 141 138 136 135 133 131 128 126 124 121 120 118 117 115 114 111 109 106 104
119 119 118 118 118 118 119 119 119 120 120 121 121 121 122 123 124 124 125 125 125 125 126 126 127 127 128 128 129 129 130 130 130 130 130 131 131 132 132 132 132 132 132 132 132 132 132 133 134 134 135 136 137 139 140 141 142 143 143 144 145 145 145 145 144 142 140 138 136 135 133 131 128 125 121 118 116 114 113 112 110 107 103 100 99
114 114 114 115 115 115 116 116 117 117 117 118 118 119 119 120 121 122 122 122 122 123 124 124 125 125 126 127 128 128 129 129 129 129 130 130 130 130 131 131 131 132 132 132 132 133 133 133 134 134 135 137 138 139 140 141 142 143 144 144 145 145 144 143 142 140 139 137 136 134 132 129 126 123 120 116 114 111 109 108 106 103 99 96 96
110 111 111 112 112 113 113 114 114 114 115 115 116 116 117 118 118 119 120 120 121 121 122 122 123 124 125 126 127 127 128 128 129 129 129 129 130 130 131 132 132 132 133 133 133 134 134 134 134 135 136 137 138 139 140 141 142 143 144 144 144 144 143 142 141 140 138 136 134 132 129 126 123 120 118 115 113 110 107 104 102 100 97 94 93
106 107 108 109 110 110 111 111 112 112 113 113 114 114 115 116 117 117 118 119 120 120 121 121 122 123 124 125 126 127 127 128 128 128 129 129 130 131 132 132 133 133 133 134 134 133 134 134 135 136 136 137 139 140 141 142 142 143 144 144 144 144 143 143 142 140 138 135 132 129 126 124 121 118 116 114 112 109 105 102 100 98 95 92 90
103 104 105 106 107 108 108 109 110 110 111 112 112 113 114 115 116 117 117 118 119 119 120 121 122 123 123 124 125 126 127 128 128 129 129 130 131 132 132 133 133 133 133 133 133 133 134 135 135 136 136 137 138 140 141 142 143 144 144 145 144 144 144 144 143 141 138 134 131 127 124 122 119 116 114 111 109 106 104 101 99 97 93 90 88
101 102 103 104 105 106 107 107 108 109 110 111 112 113 114 115 115 116 117 117 118 118 119 120 122 123 124 125 126 127 127 128 129 129 130 131 131 131 131 131 131 131 131 132 133 134 135 135 136 136 136 137 138 139 141 142 143 144 145 145 145 145 145 144 143 141 137 133 129 125 122 119 117 114 111 108 106 104 102 100 98 95 91 87 85
99 100 101 102 103 104 105 106 107 108 109 110 111 112 112 113 114 115 115 116 117 117 118 120 121 123 124 125 126 126 126 127 128 128 129 129 129 129 130 130 130 131 131 133 134 135 135 136 136 137 137 138 138 139 141 141 142 143 144 145 146 145 145 143 141 138 134 130 127 123 119 117 115 112 108 105 103 102 101 99 96 93 89 85 83
98 98 100 101 102 103 104 105 106 107 108 108 109 110 111 112 112 113 114 114 115 116 117 118 120 121 122 123 123 124 124 125 126 126 126 127 128 128 129 130 131 131 133 134 135 136 136 137 137 137 138 139 139 140 141 141 141 142 143 145 145 145 144 141 137 133 130 127 124 121 118 115 112 109 106 103 102 100 97 95 93 91 87 83 80
99 100 101 102 103 104 105 106 107 108 108 109 110 110 111 111 112 112 113 113 114 115 116 118 119 120 121 121 122 122 123 124 124 125 125 126 128 129 130 131 132 133 134 135 136 137 137 138 138 139 139 140 141 141 141 141 142 143 143 144 144 143 141 137 133 130 127 124 122 119 116 113 110 107 105 102 100 97 94 91 89 88 85 81 78
102 103 104 105 106 107 108 109 110 111 112 112 113 113 113 113 114 114 115 115 115 116 117 118 119 120 121 121 122 122 123 124 125 125 127 128 129 131 132 132 133 134 135 136 137 137 138 139 139 140 140 141 141 141 142 142 142 143 143 143 142 140 136 133 130 128 125 123 120 117 114 111 108 106 104 101 97 94 91 88 86 84 82 79 76
105 106 107 108 109 110 112 112 113 114 115 116 116 116 117 117 117 117 117 117 117 118 119 120 121 121 122 123 123 124 124 125 126 127 129 130 131 132 133 134 134 135 135 136 137 138 138 139 140 140 141 141 142 142 143 143 143 143 142 141 138 135 132 130 128 126 124 121 118 115 112 109 107 105 101 98 94 91 88 85 83 81 79 76 73
108 109 110 111 112 113 114 115 116 117 118 118 119 119 119 119 119 119 119 119 119 119 120 121 122 123 123 124 125 126 126 127 129 130 131 132 133 133 134 134 135 135 136 137 138 138 138 139 140 140 141 142 143 143 143 143 142 140 138 135 133 131 129 128 125 124 122 119 116 112 110 108 105 102 98 95 91 88 85 83 80 78 76 74 71
110 111 112 113 115 116 116 117 118 118 118 119 119 119 119 119 119 120 120 120 120 120 121 122 123 124 125 126 126 127 128 129 130 131 132 132 133 133 133 134 135 136 137 138 138 138 139 139 140 141 142 143 144 143 143 141 139 136 133 131 129 128 126 125 122 120 118 116 113 111 108 105 102 98 95 92 89 86 83 81 78 76 74 71 69
111 112 113 115 115 116 116 117 117 117 117 117 117 117 117 118 118 119 119 120 120 121 122 123 124 125 126 127 128 128 129 130 130 131 131 132 132 133 134 134 135 136 136 137 137 138 139 140 141 142 143 143 143 142 140 137 134 131 129 128 127 125 123 121 119 117 115 113 111 108 105 101 97 94 91 88 86 83 81 79 77 74 72 69 66
112 113 113 114 114 114 114 114 114 114 113 113 113 114 114 115 116 117 118 118 119 120 121 122 123 124 125 126 126 127 128 128 129 130 131 131 132 133 133 133 134 134 135 136 137 138 140 141 142 143 143 142 141 138 135 132 130 128 127 125 124 122 120 118 116 115 113 111 109 105 101 97 93 90 88 85 83 81 79 77 75 73 70 67 64
112 112 112 112 112 111 111 111 111 111 111 111 111 111 112 113 114 114 115 115 116 117 118 119 120 121 122 123 124 125 127 128 129 130 131 131 131 131 131 132 133 134 136 137 139 140 141 141 142 142 141 139 136 133 130 128 127 126 124 122 120 118 116 115 114 113 111 108 105 101 98 94 91 88 85 82 80 78 76 74 72 70 68 66 62
111 111 111 110 110 109 109 109 109 109 110 110 110 110 111 112 112 113 113 113 114 115 116 117 118 119 121 122 124 125 126 127 128 129 129 129 129 130 131 133 134 136 138 139 140 140 141 140 139 138 136 133 131 129 128 126 125 123 120 118 116 115 114 113 112 110 107 104 100 97 94 91 88 86 83 80 78 75 74 72 70 67 66 64 62
111 110 109 108 108 108 108 108 108 108 109 109 109 110 111 112 113 113 113 114 114 115 117 118 118 119 120 121 122 123 124 125 127 128 128 129 130 131 133 135 136 138 139 139 139 139 138 137 134 132 130 129 127 126 125 124 122 119 117 115 113 113 112 111 109 106 103 100 97 94 91 89 86 83 81 79 76 73 71 69 67 65 63 62 61
109 108 107 107 106 106 106 106 107 107 107 108 109 110 112 113 114 114 114 114 114 115 116 117 117 118 119 120 121 122 124 126 128 129 130 131 132 133 135 136 137 137 138 137 136 135 133 131 129 128 127 126 125 124 122 120 118 115 114 112 112 111 110 108 106 102 99 96 94 91 89 86 84 81 79 77 75 72 69 66 64 62 60 59 59
108 107 106 106 106 106 107 107 107 108 108 109 110 111 113 114 115 115 115 115 115 115 115 116 117 118 119 121 122 124 126 128 129 131 131 132 133 134 135 135 136 136 135 133 131 130 128 127 126 125 125 123 122 120 117 115 113 112 111 111 110 109 107 104 101 99 96 94 91 89 87 84 81 79 77 75 73 70 67 64 61 59 58 56 56
108 108 107 107 107 108 108 109 109 109 110 111 112 113 114 116 116 117 118 118 118 118 119 120 121 122 123 123 125 126 127 128 130 131 131 132 133 133 134 134 133 132 130 128 127 126 126 125 125 124 123 121 118 116 113 112 111 110 109 108 107 105 103 100 98 96 93 91 89 87 85 82 80 77 75 73 71 68 66 63 60 58 56 55 54
111 110 110 110 110 110 111 111 111 112 112 113 115 116 118 119 120 121 122 122 123 123 124 124 125 125 125 125 126 126 127 128 129 130 131 131 131 131 130 130 129 128 126 125 125 124 124 123 123 122 120 117 115 113 112 111 110 108 107 105 103 101 99 97 95 93 91 89 86 84 82 80 78 76 73 71 69 66 64 61 59 57 56 54 52
114 114 114 114 114 114 114 115 115 115 116 117 119 120 122 123 124 125 126 126 126 127 127 127 127 126 126 126 127 127 128 129 130 130 130 129 128 127 126 126 125 124 124 124 124 123 123 122 120 118 116 114 113 112 111 110 109 106 103 101 99 98 96 94 93 91 89 87 84 82 80 79 77 75 72 70 67 64 62 59 57 56 55 54 52
117 117 117 117 117 118 118 118 118 118 119 120 121 122 124 125 126 127 127 128 128 128 128 128 128 127 127 128 128 128 128 128 128 127 126 125 124 124 124 124 123 123 123 123 122 121 120 118 116 114 113 112 112 112 111 109 106 103 100 99 97 95 93 92 90 89 87 84 82 80 79 77 75 73 71 68 65 62 60 58 56 55 54 53 52
118 118 119 119 119 119 119 119 119 120 120 121 122 123 124 124 125 126 127 128 128 129 128 128 128 128 127 127 127 127 126 126 125 124 123 123 123 123 123 123 123 122 122 121 120 118 116 114 113 112 112 111 111 110 109 106 103 100 98 97 95 93 92 90 88 87 85 82 80 79 77 76 74 72 69 66 63 60 59 57 56 55 53 52 51
116 116 117 117 118 118 118 118 119 119 120 121 121 122 123 124 124 125 126 127 128 128 128 127 127 126 125 125 125 124 124 123 123 123 123 123 123 122 123 123 122 121 120 119 117 115 113 112 112 111 111 111 110 108 106 102 100 98 97 95 94 92 90 88 87 85 83 81 79 77 75 74 72 70 67 64 61 59 57 57 56 54 53 51 50
113 114 114 115 115 116 116 116 117 118 119 119 120 121 121 122 123 124 125 126 126 126 126 125 124 124 124 123 123 123 124 123 123 123 123 123 122 122 122 121 121 119 117 115 114 112 112 111 111 111 110 109 108 105 102 99 98 97 96 94 92 91 89 87 85 83 81 80 78 76 74 72 70 68 65 63 61 59 57 56 55 54 53 51 50
113 113 114 114 114 115 115 115 116 116 117 118 118 119 120 121 121 122 123 123 124 124 124 124 123 124 124 124 124 124 124 124 124 123 123 122 122 121 121 119 118 116 114 113 112 112 111 111 110 109 108 107 104 102 99 97 96 96 94 92 90 89 87 86 84 82 80 79 77 75 72 70 68 65 63 62 60 59 58 56 55 53 52 51 50
Wind_Direction
276 276 277 279 280 281 282 283 283 284 285 286 288 290 292 294 295 297 297 298 298 299 299 299 299 300 300 300 301 302 302 302 303 303 303 303 303 303 303 303 303 303 303 303 303 304 304 305 305 305 305 305 305 306 306 306 306 306 306 306 307 307 308 309 310 311 311 311 311 311 310 309 308 308 308 308 308 308 308 307 307 306 306 305 304
275 276 277 278 280 281 282 282 283 285 286 287 289 291 292 294 295 296 297 297 298 298 298 298 299 299 299 300 300 301 301 302 302 302 302 302 302 302 302 302 302 302 302 302 303 303 304 304 304 305 305 305 305 305 305 305 305 306 306 306 307 308 308 309 309 310 311 311 310 310 309 308 308 308 308 308 308 307 307 307 306 305 305 304 304
275 276 277 279 280 281 282 283 285 286 287 289 290 292 293 294 295 296 296 297 297 297 298 298 298 298 298 299 299 300 300 301 301 301 301 301 301 301 301 301 301 301 302 302 303 303 303 304 304 304 304 304 304 304 304 305 305 306 306 307 307 308 308 308 309 309 310 310 309 309 308 308 308 308 308 308 307 306 306 306 305 304 304 304 305
276 277 278 279 280 282 283 285 286 287 289 290 291 292 293 293 294 295 295 296 296 297 297 297 297 297 297 298 298 299 300 300 300 300 300 300 300 300 300 300 300 301 301 302 302 303 303 303 303 303 303 303 303 304 304 305 305 306 306 307 307 307 307 308 308 308 309 309 309 308 308 308 308 308 307 307 306 305 305 305 304 304 304 304 304
276 278 279 280 282 283 285 286 287 288 289 290 291 291 292 292 293 294 294 295 295 296 296 296 296 296 296 297 298 298 299 299 299 299 299 299 299 299 299 299 300 300 301 301 302 302 302 302 302 302 302 303 303 303 304 305 305 306 306 306 306 307 307 307 307 307 308 308 308 308 308 308 308 307 306 305 305 305 304 304 304 304 304 304 304
278 280 281 282 283 285 286 287 288 288 289 289 290 290 291 291 292 293 293 294 294 294 294 294 295 295 296 296 297 298 298 298 298 298 298 298 298 298 298 298 299 299 300 301 301 301 301 301 301 302 302 302 303 303 304 304 305 305 305 305 306 306 306 306 306 307 307 308 308 308 308 307 307 306 305 305 305 305 304 304 304 304 304 304 305
280 281 282 283 284 285 285 286 286 287 288 288 289 289 290 290 291 292 292 292 292 293 293 294 294 294 295 295 296 297 297 297 297 297 297 297 297 297 297 298 298 299 300 300 300 301 301 301 301 301 302 302 302 303 303 304 304 305 305 305 305 305 306 306 306 306 307 307 307 307 307 306 306 305 305 305 305 305 305 305 305 305 304 304 304
280 281 282 282 283 284 284 285 285 286 287 287 288 288 289 289 290 290 291 291 291 292 292 293 293 293 294 294 295 295 295 295 295 295 296 296 296 296 297 297 298 299 299 300 300 300 300 300 301 301 301 302 302 303 303 304 304 305 305 305 305 305 305 305 306 306 306 306 306 306 306 306 305 305 305 305 305 305 305 305 305 304 304 304 304
279 280 280 281 282 282 283 284 284 285 285 286 286 287 287 288 288 289 289 290 290 291 291 291 292 292 292 293 293 293 294 294 294 294 295 295 295 296 296 297 298 298 299 299 299 299 300 300 300 301 301 302 302 303 303 304 304 304 304 304 305 305 305 305 306 306 305 305 305 305 305 305 305 305 305 305 304 304 304 304 304 304 304 305 305
278 278 279 280 280 281 282 282 283 283 284 284 285 285 286 286 287 287 288 288 288 289 289 290 290 290 291 291 292 292 292 293 293 293 294 294 295 295 296 297 297 298 298 298 299 299 299 300 300 301 301 302 302 303 303 303 304 304 304 305 305 305 305 305 305 305 305 305 305 305 305 305 305 305 304 304 304 304 304 304 304 305 305 305 305
276 276 277 278 278 279 280 280 281 281 282 282 283 283 284 285 285 286 286 287 287 288 288 289 289 290 290 291 291 291 291 292 292 293 293 294 295 295 296 296 297 297 297 298 298 299 299 300 300 300 301 301 301 302 302 303 304 304 304 305 305 305 305 304 304 304 304 304 305 305 305 305 305 304 304 304 304 304 304 305 305 306 305 305 305
275 275 276 276 277 278 278 279 279 280 281 281 282 283 284 284 285 285 286 287 287 287 288 288 288 289 289 290 290 290 291 291 292 293 293 294 294 295 295 296 296 297 297 297 298 298 299 299 299 299 300 300 301 302 302 303 303 304 304 304 304 304 304 304 304 304 304 304 304 305 305 305 305 305 305 305 305 305 306 306 306 306 306 305 305
275 275 276 276 277 277 278 279 279 280 281 282 282 283 284 284 285 285 286 286 286 287 287 288 288 288 289 289 290 290 291 291 292 293 293 294 294 294 295 295 296 296 297 297 298 298 298 298 299 299 300 300 301 302 302 303 303 303 303 303 303 303 303 304 304 304 305 305 305 305 305 305 305 305 306 306 306 307 307 307 307 306 305 305 305
275 276 276 277 277 278 278 279 280 281 281 282 283 283 284 284 284 285 285 286 286 286 287 287 288 288 289 289 289 290 291 291 292 292 293 293 294 294 295 295 296 296 296 297 297 297 298 298 299 299 300 301 301 301 302 302 302 302 302 302 303 303 303 304 304 305 305 305 305 306 306 306 306 306 307 307 308 308 307 307 307 306 306 305 306
275 275 276 276 277 278 278 279 280 280 281 282 282 283 283 284 284 284 285 285 286 286 287 287 288 288 289 289 290 290 291 291 292 292 292 293 294 294 295 295 295 296 296 297 297 297 298 298 299 300 300 301 301 301 301 301 301 302 302 302 303 303 304 304 304 305 305 305 306 306 306 307 307 307 308 309 309 309 308 308 308 307 306 306 306
274 275 275 276 277 277 278 279 279 280 281 281 282 282 283 283 284 284 285 285 286 286 286 287 287 288 289 289 290 290 291 291 291 292 292 293 293 294 294 295 295 296 296 297 297 298 298 299 299 300 300 300 300 300 301 301 301 301 302 302 303 303 304 304 305 305 306 306 307 307 307 307 308 309 310 310 310 310 309 309 308 307 306 306 306
274 275 275 276 276 277 278 279 279 280 281 281 282 282 283 283 284 284 285 285 285 286 286 287 288 288 289 289 289 290 290 290 291 291 292 292 293 293 294 294 295 296 296 297 297 298 298 298 299 299 299 300 300 300 301 301 301 302 302 302 303 303 304 304 305 306 306 306 307 307 308 308 309 310 311 311 311 310 309 309 308 307 306 306 306
274 274 275 276 276 277 278 279 279 280 280 281 282 282 283 283 283 284 284 285 285 286 286 287 287 288 288 288 289 289 290 290 291 291 291 292 293 293 294 294 295 296 296 297 297 297 298 298 298 299 299 299 300 300 301 301 302 302 303 303 303 304 304 305 305 305 306 306 307 307 308 309 310 310 311 310 310 309 309 309 308 307 307 307 306
273 274 274 275 276 277 277 278 278 279 280 280 281 281 282 282 283 283 284 284 285 285 286 286 287 287 288 288 288 289 289 290 290 291 292 292 293 293 294 294 295 295 296 296 296 297 297 298 298 298 299 300 300 301 302 302 303 303 303 304 304 304 305 305 305 305 306 306 306 307 308 309 309 310 310 310 310 309 309 309 308 308 307 307 307
272 273 274 274 275 276 276 277 277 278 279 279 280 280 281 281 282 283 283 284 284 285 285 286 286 287 287 287 288 289 289 290 290 291 292 292 293 293 294 294 294 295 295 296 296 296 297 297 298 299 300 300 301 302 302 303 303 304 304 305 305 305 306 306 306 306 306 307 307 308 309 309 309 310 310 310 310 310 309 309 309 309 309 308 308
272 273 274 274 275 275 276 276 277 277 278 279 279 280 280 281 282 282 283 283 284 284 285 285 286 286 287 287 288 288 289 290 290 291 292 292 292 293 293 293 294 294 295 295 296 296 297 298 299 300 301 301 302 303 303 304 304 305 305 306 306 306 306 306 306 307 307 308 309 309 309 309 310 310 310 311 311 310 310 310 310 310 310 309 309
273 274 274 275 275 275 276 276 277 277 278 278 279 279 280 280 281 282 282 282 283 284 284 285 285 286 286 287 288 288 289 290 290 291 291 291 292 292 293 293 293 294 294 295 296 297 298 299 300 301 302 303 303 304 304 304 305 305 306 306 306 306 306 307 307 307 308 309 310 310 310 311 311 311 311 311 311 311 311 311 311 310 310 310 309
275 275 275 275 276 276 276 277 277 277 278 278 279 279 280 280 280 281 281 282 283 283 284 285 285 286 287 287 288 288 289 289 290 290 291 291 291 292 292 293 294 294 295 296 297 298 299 300 301 302 303 303 304 304 304 305 305 305 306 306 306 306 306 307 307 308 309 310 311 312 312 312 312 312 312 312 311 311 311 311 310 310 310 310 309
276 276 276 276 277 277 277 277 277 278 278 278 279 279 280 280 280 281 282 282 283 284 284 285 285 286 286 287 287 288 289 289 289 290 290 291 291 292 293 294 295 296 297 298 298 299 300 301 302 303 303 304 304 304 305 305 305 306 306 306 306 306 306 307 308 309 310 311 312 312 313 313 313 312 312 312 312 311 311 310 310 309 309 310 310
275 275 276 276 277 277 277 277 278 278 278 279 279 279 280 280 281 281 282 282 283 284 284 285 285 286 286 287 287 288 288 289 289 290 291 292 293 294 295 296 297 297 298 299 300 301 301 302 303 303 304 304 304 305 305 305 306 306 306 306 306 306 307 308 309 311 311 312 313 313 313 313 313 313 312 312 312 311 311 310 310 310 311 311 310
274 274 275 275 276 276 276 277 277 278 278 278 279 279 280 280 281 281 282 282 283 283 284 285 285 286 286 287 287 288 289 290 290 291 293 294 295 296 296 297 298 298 299 300 301 301 302 302 303 303 304 304 304 305 305 305 305 305 305 305 306 307 308 310 311 311 312 312 313 313 313 313 313 313 313 313 312 312 311 311 311 311 312 312 311
274 274 274 275 275 276 276 277 277 277 278 278 279 279 280 280 281 281 282 282 283 284 284 285 285 286 287 288 289 289 290 291 292 293 294 295 296 296 297 298 299 299 300 301 301 302 302 303 303 303 304 304 304 305 305 305 305 305 305 306 307 308 310 311 311 312 312 313 313 313 313 313 313 313 313 313 313 312 312 312 312 312 312 312 311
274 275 275 275 276 276 276 277 277 278 278 278 279 279 280 280 281 282 282 283 284 285 286 286 287 288 289 290 290 291 292 292 293 294 295 295 296 297 297 298 299 299 300 300 301 301 302 302 302 303 303 304 304 304 304 305 305 306 306 307 308 309 310 311 312 312 313 313 313 313 313 313 313 313 314 314 313 313 313 313 313 312 312 312 311
276 276 276 276 276 277 277 277 278 278 279 279 280 280 281 282 282 283 284 284 285 286 287 288 288 289 289 290 290 291 292 293 293 294 294 295 296 297 297 298 298 299 299 300 300 301 301 301 302 303 303 304 304 304 304 305 306 306 307 308 309 310 311 311 312 312 312 312 312 313 313 313 313 314 314 314 314 314 314 314 313 312 312 312 311
279 279 279 279 279 279 279 279 280 280 280 281 281 282 283 283 284 284 285 285 286 287 287 288 288 288 289 289 290 291 292 293 293 294 294 295 296 296 297 297 298 298 299 299 300 300 301 301 302 302 303 303 303 304 304 305 306 306 307 308 309 310 311 311 311 312 312 312 312 312 313 313 314 314 314 314 314 314 314 313 313 312 312 312 311
281 281 281 281 282 282 282 282 283 283 283 283 283 284 284 284 285 285 286 286 287 287 287 287 288 288 289 289 290 291 292 292 293 294 294 295 295 296 296 297 297 298 298 299 299 300 300 301 302 302 303 303 304 304 305 305 306 307 308 309 309 310 310 311 311 311 311 311 312 313 313 314 314 314 314 314 314 314 313 313 312 312 312 312 311
281 282 282 282 283 283 284 284 284 285 285 285 285 286 286 286 286 286 286 287 287 287 287 288 288 288 289 290 290 291 291 292 293 293 294 294 295 295 296 296 297 298 298 299 299 300 300 301 302 303 303 303 304 304 305 306 307 308 308 309 309 310 310 310 311 311 311 312 312 313 313 314 314 314 314 314 314 314 313 313 312 312 312 312 311
281 281 282 282 283 283 284 284 285 285 286 286 286 286 286 286 286 286 286 287 287 287 287 287 288 288 289 289 290 290 291 292 292 293 293 294 294 295 295 296 297 298 298 299 299 300 301 302 302 302 303 303 304 305 306 307 308 308 309 309 309 310 310 310 311 311 311 312 312 313 314 314 314 314 314 314 314 313 313 313 312 311 311 312 311
280 281 282 282 283 283 283 284 284 285 285 285 285 285 285 286 286 285 286 286 286 286 286 286 287 287 288 289 289 290 291 291 292 292 293 293 294 295 295 296 297 297 298 299 299 300 301 301 302 302 303 304 304 305 306 307 308 309 309 309 309 310 310 311 311 311 312 312 313 313 314 314 314 314 314 314 314 313 313 313 312 311 311 311 311
280 280 281 282 282 282 283 283 283 284 284 284 284 284 284 284 284 284 284 284 285 285 285 285 286 287 288 288 289 290 290 291 291 292 293 293 294 295 295 296 297 298 298 299 300 300 301 301 302 302 303 304 305 306 307 307 308 309 309 309 309 310 310 311 311 311 312 312 313 313 314 314 314 314 314 313 313 313 313 312 312 312 311 311 311
279 280 281 281 282 282 282 283 283 283 283 283 283 283 283 283 283 283 283 283 283 284 284 285 286 286 287 288 289 289 290 290 291 292 292 293 294 295 296 297 298 298 299 299 300 300 301 301 302 303 303 304 305 306 307 307 308 308 309 309 309 310 310 310 311 311 311 312 312 313 313 313 313 313 313 313 313 313 313 312 312 312 311 311 311
279 280 280 281 281 282 282 283 283 283 283 283 282 282 282 282 282 282 282 282 283 283 284 285 285 286 287 288 288 289 290 290 291 292 293 294 295 296 297 297 298 298 298 299 299 300 301 302 302 303 303 304 305 306 307 307 308 308 309 309 309 310 310 310 310 310 311 311 312 312 312 313 313 313 313 313 313 313 313 312 312 312 311 311 310
280 281 281 282 282 282 282 282 282 282 282 282 282 282 282 282 282 282 282 282 283 283 284 285 285 286 287 288 288 289 290 291 292 293 294 295 295 296 296 297 297 297 298 299 300 300 301 302 302 303 304 304 305 306 307 307 308 308 309 309 309 309 310 310 310 310 311 311 312 312 312 312 312 312 312 313 313 313 313 312 312 311 311 310 310
282 282 282 282 282 282 282 282 282 281 281 281 281 281 282 282 282 282 283 283 283 284 284 285 286 287 288 289 290 291 292 292 293 294 294 294 295 295 296 296 297 298 298 299 300 300 301 302 302 303 304 305 305 306 307 308 308 308 309 309 309 309 309 310 310 310 311 311 312 312 312 312 312 312 312 313 313 313 312 312 312 311 310 309 308
282 282 282 282 282 282 282 281 281 281 281 281 282 282 282 282 283 283 284 284 285 285 286 287 288 289 289 290 291 292 292 292 293 293 294 294 295 295 296 296 297 297 298 299 299 300 301 302 302 303 304 305 306 307 307 308 308 308 308 309 309 309 309 309 309 310 311 311 311 312 312 312 312 312 312 312 312 312 312 311 311 311 310 309 308
282 282 282 282 282 282 282 282 282 282 282 283 283 283 283 283 284 284 285 285 286 287 287 288 289 289 290 290 291 291 291 292 292 293 294 294 295 295 296 296 296 297 297 298 299 300 301 302 302 303 304 305 306 307 307 307 308 308 308 308 309 309 309 309 310 310 311 311 311 311 311 311 312 312 312 312 312 312 312 311 311 310 309 308 307
283 283 283 283 283 283 283 283 283 283 283 283 283 283 284 284 284 285 285 286 286 286 287 288 288 289 289 290 290 291 291 292 292 293 293 294 294 294 295 295 296 296 297 298 299 301 301 302 303 304 305 305 306 307 307 307 307 308 308 308 309 309 309 309 310 310 311 311 311 311 311 311 311 312 312 311 311 311 311 311 310 309 308 306 306
283 283 283 283 283 283 283 283 283 283 283 283 283 283 284 284 284 285 285 285 286 286 287 287 288 288 289 289 290 290 291 291 291 291 292 292 293 294 294 295 296 297 298 299 300 301 302 303 303 304 305 306 306 306 306 307 307 308 308 309 309 309 309 309 310 310 310 310 310 310 310 310 311 311 311 311 311 311 310 309 308 307 306 305 304
283 283 283 283 282 282 282 282 282 283 283 283 284 284 284 284 285 285 286 286 286 287 287 287 288 288 288 288 289 289 289 289 290 290 291 292 293 294 295 296 297 298 299 300 301 301 302 303 304 305 305 305 305 306 306 306 307 308 308 309 309 309 309 309 310 310 310 310 310 310 310 310 310 310 310 310 310 310 309 308 307 306 305 304 303
283 283 282 282 282 282 282 282 283 283 283 284 284 284 285 285 285 285 286 286 286 287 287 287 287 287 287 287 287 288 288 289 290 290 291 292 294 295 296 296 297 298 300 300 301 302 303 304 304 305 305 305 306 306 306 307 307 308 309 309 309 309 309 310 310 310 309 309 309 310 310 310 310 310 310 310 309 309 308 307 307 306 305 304 303
282 282 282 282 282 282 282 282 283 283 283 283 283 283 284 284 284 285 285 285 285 286 286 286 286 287 287 288 288 289 290 290 291 292 293 294 295 296 296 297 298 299 300 301 302 302 303 304 304 305 305 306 306 306 307 307 307 308 308 308 308 309 309 309 309 309 309 309 309 309 309 309 309 310 309 309 309 308 307 306 305 305 304 303 302
281 281 281 281 281 281 281 282 282 282 282 282 282 282 283 283 284 284 284 285 285 285 286 286 287 288 289 289 290 291 291 292 292 293 294 295 296 296 297 298 299 300 301 301 302 303 303 304 304 305 305 306 306 307 307 307 308 308 308 308 308 309 309 309 309 309 309 309 309 309 309 309 309 309 308 308 307 306 306 305 304 303 302 301 300
280 280 280 280 280 280 280 281 281 281 281 281 281 282 282 283 283 284 284 285 286 286 287 288 288 289 290 291 291 292 293 293 294 295 295 296 297 297 298 299 300 300 301 301 302 303 303 304 304 305 306 306 306 306 306 307 308 308 308 308 308 308 308 308 308 308 308 308 309 309 309 308 308 308 307 307 306 305 304 304 303 302 301 300 299
279 279 279 279 279 279 279 280 280 280 280 281 281 282 282 283 283 284 285 286 287 287 288 289 290 290 291 292 292 293 293 294 294 295 296 296 297 298 298 299 299 300 300 301 302 303 303 304 305 305 306 306 306 306 306 307 308 308 308 308 308 308 308 308 308 308 308 308 308 308 308 307 307 307 306 305 305 304 303 303 302 301 300 298 297
281 281 281 281 281 281 280 281 281 281 281 281 282 282 283 284 285 285 286 287 288 288 289 290 290 291 291 292 293 293 293 294 295 295 296 296 297 298 298 299 299 300 301 302 302 303 304 305 305 305 305 305 305 305 306 307 307 307 307 307 308 308 308 308 308 308 308 307 307 307 307 306 306 305 305 304 304 303 303 302 300 299 298 297 296
282 282 282 282 282 282 282 282 282 282 282 283 283 284 284 285 286 286 287 288 288 289 290 290 291 291 292 292 293 293 293 294 294 295 296 296 297 298 298 299 299 300 301 302 303 303 304 305 305 305 305 304 305 305 306 307 307 306 306 307 307 307 307 307 307 307 307 307 306 306 306 305 304 304 303 303 303 303 302 301 299 298 297 296 295
Height
10740 10739 10737 10736 10734 10733 10731 10729 10727 10724 10722 10720 10717 10715 10713 10711 10708 10706 10703 10701 10698 10695 10692 10689 10686 10682 10679 10676 10673 10670 10666 10662 10659 10654 10650 10646 10642 10637 10632 10627 10622 10617 10613 10608 10604 10599 10594 10589 10584 10579 10574 10568 10561 10555 10550 10544 10539 10534 10526 10520 10515 10505 10498 10498 10498 10507 10519 10513 10500 10497 10488 10478 10476 10469 10458 10455 10451 10441 10436 10432 10427 10423 10419 10414 10411
10731 10730 10729 10728 10726 10724 10723 10720 10718 10715 10713 10711 10708 10706 10703 10701 10698 10696 10693 10691 10688 10685 10682 10678 10675 10672 10669 10665 10662 10658 10655 10651 10648 10644 10640 10635 10631 10626 10621 10616 10611 10605 10601 10597 10592 10588 10583 10577 10572 10567 10562 10555 10550 10544 10539 10534 10527 10522 10514 10506 10501 10493 10482 10479 10479 10480 10492 10499 10490 10481 10474 10463 10458 10453 10442 10435 10433 10428 10423 10418 10411 10408 10404 10398 10394
10723 10722 10721 10719 10718 10716 10714 10711 10709 10706 10704 10701 10699 10696 10694 10691 10688 10686 10683 10681 10678 10675 10672 10668 10665 10661 10658 10654 10651 10647 10644 10640 10637 10633 10629 10624 10620 10615 10610 10604 10599 10594 10589 10584 10580 10575 10570 10565 10560 10555 10549 10543 10537 10532 10527 10521 10515 10509 10502 10493 10486 10481 10471 10462 10461 10461 10466 10478 10479 10469 10460 10451 10443 10436 10426 10419 10414 10410 10408 10405 10398 10393 10389 10382 10376
10714 10713 10712 10710 10708 10706 10704 10701 10699 10697 10694 10692 10689 10686 10684 10681 10679 10676 10673 10671 10668 10665 10661 10657 10654 10651 10647 10643 10640 10636 10633 10629 10625 10622 10617 10613 10608 10603 10598 10592 10586 10581 10577 10572 10567 10562 10557 10552 10547 10542 10537 10531 10525 10520 10514 10508 10502 10495 10488 10482 10474 10468 10461 10451 10444 10443 10443 10451 10459 10455 10445 10437 10430 10421 10410 10403 10400 10394 10390 10388 10383 10377 10375 10368 10360
10705 10704 10702 10701 10698 10696 10694 10692 10690 10687 10684 10682 10679 10677 10674 10671 10669 10666 10664 10661 10658 10654 10651 10647 10643 10640 10636 10633 10629 10625 10622 10618 10614 10610 10605 10600 10596 10591 10585 10579 10574 10569 10565 10561 10555 10551 10546 10540 10535 10530 10525 10520 10514 10508 10502 10495 10489 10483 10476 10470 10464 10456 10450 10442 10432 10427 10425 10426 10432 10435 10430 10421 10415 10408 10394 10382 10380 10379 10374 10371 10367 10359 10355 10353 10346
10695 10694 10693 10691 10689 10687 10685 10682 10680 10677 10674 10672 10669 10667 10664 10661 10659 10657 10654 10651 10648 10644 10640 10636 10633 10629 10625 10622 10617 10614 10610 10606 10601 10597 10592 10588 10583 10578 10573 10567 10562 10558 10553 10549 10543 10539 10534 10528 10523 10518 10512 10508 10503 10496 10491 10485 10478 10472 10465 10458 10453 10445 10438 10431 10422 10415 10411 10409 10409 10410 10410 10406 10399 10394 10383 10366 10357 10356 10352 10352 10353 10346 10335 10331 10328
10686 10684 10683 10681 10679 10677 10675 10672 10670 10667 10664 10662 10659 10656 10654 10651 10649 10646 10643 10640 10636 10633 10629 10625 10622 10618 10614 10610 10606 10602 10598 10594 10589 10585 10580 10576 10571 10566 10561 10554 10550 10546 10541 10536 10531 10526 10521 10515 10509 10504 10498 10494 10490 10484 10479 10474 10467 10460 10451 10445 10440 10433 10426 10419 10411 10404 10398 10395 10393 10389 10388 10387 10381 10374 10368 10356 10343 10334 10326 10321 10326 10328 10321 10314 10310
10676 10674 10673 10671 10669 10667 10664 10662 10659 10656 10654 10651 10648 10646 10644 10641 10638 10635 10632 10629 10625 10621 10618 10614 10610 10607 10603 10599 10594 10591 10586 10582 10577 10573 10568 10564 10559 10554 10549 10543 10538 10534 10528 10523 10518 10512 10507 10501 10495 10490 10485 10480 10475 10470 10464 10459 10455 10448 10439 10431 10425 10420 10413 10406 10398 10391 10384 10380 10378 10373 10368 10367 10363 10354 10348 10340 10328 10319 10310 10299 10296 10300 10299 10298 10298
10666 10664 10663 10661 10658 10656 10653 10651 10648 10645 10643 10641 10638 10635 10633 10630 10627 10623 10620 10617 10613 10610 10606 10602 10598 10595 10591 10587 10583 10578 10575 10570 10565 10561 10556 10552 10547 10542 10537 10532 10527 10522 10516 10510 10504 10498 10492 10487 10482 10476 10471 10465 10460 10455 10450 10444 10439 10434 10426 10417 10409 10403 10397 10391 10383 10375 10370 10366 10363 10357 10351 10347 10342 10333 10327 10321 10310 10302 10297 10286 10278 10276 10273 10273 10278
10655 10654 10652 10649 10647 10644 10642 10639 10637 10634 10632 10629 10627 10624 10621 10618 10615 10612 10608 10605 10602 10598 10594 10590 10586 10582 10578 10574 10571 10566 10562 10558 10554 10549 10545 10540 10535 10529 10524 10519 10514 10510 10505 10498 10491 10486 10479 10474 10469 10463 10457 10452 10447 10442 10436 10430 10423 10417 10410 10401 10393 10387 10380 10376 10370 10361 10354 10350 10347 10340 10333 10329 10324 10315 10307 10300 10292 10284 10279 10271 10262 10258 10253 10248 10252
10644 10642 10640 10637 10635 10632 10629 10626 10624 10622 10619 10617 10614 10612 10609 10606 10602 10599 10596 10593 10590 10586 10582 10578 10574 10570 10566 10562 10558 10554 10550 10546 10542 10537 10533 10528 10523 10517 10512 10507 10502 10497 10492 10487 10480 10474 10468 10462 10456 10450 10445 10440 10435 10430 10424 10418 10411 10403 10395 10386 10377 10370 10363 10358 10354 10348 10340 10334 10328 10322 10313 10306 10304 10298 10288 10279 10272 10266 10260 10253 10245 10238 10232 10226 10224
10631 10630 10627 10625 10622 10619 10616 10614 10611 10609 10607 10604 10602 10599 10596 10593 10590 10587 10583 10580 10577 10573 10569 10566 10562 10558 10554 10550 10546 10542 10537 10533 10529 10525 10520 10515 10510 10505 10500 10495 10490 10485 10479 10474 10468 10462 10456 10451 10444 10438 10433 10428 10423 10419 10413 10406 10399 10391 10383 10374 10365 10356 10346 10338 10333 10329 10324 10317 10311 10307 10297 10285 10281 10277 10267 10256 10250 10245 10239 10233 10229 10220 10211 10205 10200
10619 10617 10615 10612 10609 10606 10603 10601 10598 10596 10594 10591 10589 10586 10584 10581 10577 10574 10571 10567 10563 10559 10555 10552 10548 10545 10541 10537 10533 10529 10525 10521 10517 10512 10507 10502 10497 10492 10488 10482 10477 10472 10467 10461 10455 10450 10444 10438 10431 10425 10419 10414 10410 10405 10400 10394 10387 10380 10372 10363 10354 10344 10333 10323 10315 10309 10302 10294 10289 10287 10279 10267 10259 10255 10246 10235 10226 10222 10216 10211 10210 10203 10194 10188 10182
10606 10604 10602 10599 10596 10593 10590 10588 10586 10584 10581 10579 10576 10573 10570 10568 10564 10561 10558 10553 10549 10546 10541 10538 10534 10531 10527 10523 10519 10515 10512 10508 10504 10499 10494 10489 10484 10480 10475 10469 10464 10458 10453 10448 10442 10436 10430 10424 10418 10411 10405 10400 10395 10391 10387 10382 10376 10369 10362 10353 10344 10334 10322 10311 10302 10294 10285 10275 10267 10263 10258 10248 10238 10233 10226 10216 10206 10199 10191 10186 10185 10179 10174 10171 10167
10593 10591 10588 10585 10583 10580 10578 10576 10573 10571 10569 10566 10563 10560 10556 10554 10550 10547 10543 10539 10536 10532 10527 10523 10520 10516 10513 10509 10506 10502 10498 10494 10489 10485 10480 10476 10472 10467 10461 10456 10451 10445 10440 10434 10428 10422 10416 10409 10403 10397 10390 10384 10378 10374 10371 10368 10363 10357 10351 10343 10333 10323 10311 10298 10288 10280 10270 10261 10251 10242 10236 10228 10219 10212 10206 10196 10186 10177 10169 10164 10159 10151 10147 10149 10149
10580 10577 10574 10572 10569 10567 10565 10563 10560 10558 10555 10552 10549 10546 10542 10539 10536 10532 10528 10525 10521 10517 10513 10509 10505 10502 10499 10495 10492 10488 10483 10480 10476 10472 10468 10464 10459 10454 10448 10443 10437 10432 10426 10420 10413 10407 10400 10394 10388 10382 10376 10368 10361 10356 10352 10349 10346 10341 10336 10331 10323 10313 10302 10289 10276 10265 10254 10246 10236 10226 10216 10208 10198 10191 10183 10172 10163 10154 10146 10143 10139 10129 10122 10124 10126
10566 10563 10560 10557 10555 10553 10551 10549 10547 10544 10541 10538 10534 10531 10528 10524 10521 10517 10513 10510 10506 10503 10499 10496 10492 10489 10485 10481 10477 10473 10469 10466 10463 10459 10455 10451 10446 10441 10435 10429 10424 10418 10412 10405 10399 10392 10385 10379 10373 10368 10362 10353 10345 10339 10333 10329 10326 10322 10317 10313 10308 10301 10292 10281 10270 10258 10245 10233 10221 10210 10200 10191 10182 10174 10166 10155 10143 10132 10123 10120 10117 10108 10102 10101 10103
10552 10548 10545 10543 10541 10539 10537 10535 10533 10530 10527 10524 10520 10517 10514 10510 10506 10503 10499 10496 10492 10489 10486 10482 10478 10475 10471 10467 10463 10459 10456 10452 10449 10446 10442 10438 10433 10428 10422 10416 10410 10404 10398 10391 10385 10379 10372 10364 10358 10353 10348 10340 10332 10324 10316 10310 10306 10301 10295 10291 10288 10283 10276 10269 10261 10252 10241 10229 10215 10201 10189 10178 10168 10160 10152 10143 10131 10119 10107 10100 10095 10088 10083 10081 10080
10536 10533 10532 10530 10528 10526 10524 10521 10519 10517 10513 10510 10507 10503 10500 10496 10492 10489 10486 10482 10479 10476 10472 10468 10465 10460 10456 10452 10448 10445 10442 10438 10434 10431 10427 10424 10419 10414 10408 10403 10397 10391 10384 10378 10371 10365 10358 10350 10344 10337 10331 10325 10318 10310 10300 10291 10285 10280 10273 10268 10265 10261 10256 10250 10243 10235 10229 10221 10211 10199 10187 10174 10161 10149 10140 10131 10120 10108 10096 10085 10076 10070 10064 10062 10059
10522 10520 10519 10517 10514 10512 10510 10508 10505 10503 10500 10497 10494 10490 10487 10483 10479 10476 10472 10469 10466 10462 10458 10454 10450 10446 10441 10437 10434 10430 10427 10424 10420 10416 10413 10408 10404 10399 10394 10389 10384 10378 10372 10365 10358 10352 10345 10337 10329 10322 10316 10310 10302 10295 10286 10276 10267 10260 10253 10246 10241 10237 10233 10228 10222 10214 10207 10202 10195 10187 10177 10166 10155 10141 10128 10117 10105 10094 10084 10072 10061 10053 10045 10042 10039
10508 10507 10505 10503 10501 10499 10496 10494 10492 10489 10487 10484 10480 10477 10474 10470 10466 10462 10459 10456 10452 10448 10444 10440 10436 10431 10427 10423 10420 10416 10413 10410 10406 10402 10398 10393 10389 10384 10380 10375 10370 10365 10360 10353 10346 10340 10332 10325 10316 10308 10301 10294 10287 10279 10271 10262 10253 10244 10235 10227 10220 10213 10208 10204 10199 10192 10186 10180 10175 10169 10159 10149 10141 10129 10116 10103 10089 10077 10068 10058 10047 10039 10031 10023 10019
10495 10493 10491 10489 10487 10485 10483 10481 10478 10475 10473 10470 10467 10464 10460 10456 10453 10449 10445 10441 10437 10433 10429 10425 10421 10417 10413 10409 10405 10402 10399 10396 10392 10387 10382 10378 10374 10369 10365 10360 10355 10351 10346 10340 10333 10326 10319 10311 10303 10295 10287 10279 10271 10262 10254 10247 10238 10229 10220 10211 10203 10195 10188 10181 10175 10170 10164 10158 10152 10146 10137 10127 10120 10112 10101 10089 10076 10063 10053 10044 10034 10026 10018 10010 10002
10481 10479 10477 10475 10473 10471 10469 10466 10464 10461 10459 10456 10452 10449 10446 10442 10438 10434 10430 10426 10423 10419 10415 10410 10406 10402 10398 10394 10391 10388 10385 10382 10377 10372 10367 10363 10358 10354 10349 10345 10340 10335 10330 10324 10318 10311 10304 10297 10289 10281 10273 10264 10255 10247 10238 10230 10223 10215 10207 10198 10189 10180 10171 10163 10156 10149 10143 10137 10130 10123 10114 10105 10098 10092 10083 10074 10064 10053 10042 10033 10023 10015 10008 9999 9990
10466 10464 10461 10459 10457 10456 10454 10451 10449 10446 10444 10441 10438 10435 10431 10427 10423 10419 10416 10413 10409 10406 10401 10396 10392 10388 10383 10379 10376 10373 10370 10367 10363 10358 10353 10348 10344 10339 10334 10328 10323 10317 10312 10307 10301 10295 10288 10282 10274 10266 10259 10250 10241 10232 10222 10214 10206 10198 10190 10182 10173 10164 10156 10148 10141 10133 10126 10119 10112 10103 10095 10087 10079 10072 10065 10057 10050 10041 10032 10022 10012 10004 9999 9991 9980
10452 10449 10447 10445 10443 10441 10439 10436 10434 10432 10429 10427 10424 10420 10417 10413 10409 10405 10403 10399 10396 10392 10388 10383 10379 10374 10369 10365 10361 10358 10355 10352 10347 10343 10338 10333 10328 10323 10317 10311 10305 10300 10295 10289 10284 10278 10272 10266 10260 10252 10244 10235 10226 10217 10208 10199 10190 10181 10173 10166 10158 10150 10142 10134 10126 10118 10111 10103 10095 10086 10078 10071 10063 10054 10046 10040 10033 10025 10018 10009 9999 9990 9985 9979 9969
10439 10436 10434 10432 10429 10427 10425 10422 10420 10418 10415 10413 10410 10406 10403 10399 10396 10392 10389 10386 10383 10379 10375 10371 10366 10361 10355 10350 10346 10343 10339 10335 10331 10326 10322 10317 10311 10305 10299 10294 10288 10283 10278 10272 10267 10261 10255 10249 10243 10237 10229 10220 10212 10203 10195 10187 10178 10169 10159 10151 10143 10135 10127 10118 10110 10103 10096 10089 10081 10072 10063 10056 10048 10038 10030 10022 10014 10007 10001 9995 9987 9978 9972 9967 9959
10426 10423 10421 10418 10416 10414 10411 10409 10406 10404 10402 10399 10396 10393 10389 10386 10383 10379 10376 10373 10369 10366 10362 10358 10352 10347 10341 10337 10332 10327 10323 10319 10315 10311 10306 10300 10295 10288 10282 10277 10272 10267 10261 10256 10250 10245 10239 10233 10227 10221 10215 10207 10198 10189 10180 10172 10164 10156 10146 10137 10128 10120 10112 10103 10094 10085 10079 10073 10065 10057 10048 10040 10032 10024 10015 10007 9998 9990 9984 9978 9972 9966 9960 9954 9948
10412 10410 10408 10406 10403 10401 10398 10396 10393 10391 10389 10386 10382 10379 10376 10372 10369 10366 10363 10359 10356 10352 10349 10343 10337 10332 10328 10322 10317 10312 10308 10305 10301 10296 10291 10285 10279 10273 10268 10263 10258 10252 10247 10241 10235 10230 10224 10218 10213 10208 10202 10195 10186 10176 10166 10157 10148 10139 10131 10122 10114 10105 10097 10088 10079 10069 10061 10055 10047 10041 10034 10026 10018 10010 10003 9995 9985 9975 9969 9963 9957 9951 9947 9941 9935
10399 10396 10395 10392 10389 10387 10384 10382 10380 10378 10375 10372 10368 10365 10362 10359 10356 10353 10349 10346 10342 10339 10335 10329 10323 10318 10314 10308 10303 10298 10294 10291 10286 10282 10276 10271 10265 10260 10255 10250 10245 10239 10234 10228 10222 10217 10211 10205 10200 10195 10190 10183 10175 10165 10155 10146 10136 10125 10116 10107 10099 10092 10084 10075 10066 10057 10048 10041 10034 10028 10021 10014 10005 9997 9991 9983 9974 9963 9956 9950 9944 9938 9934 9929 9922
10384 10382 10379 10377 10375 10373 10370 10368 10366 10363 10361 10358 10355 10352 10349 10345 10343 10340 10336 10333 10329 10326 10321 10316 10310 10305 10300 10295 10290 10286 10282 10277 10272 10267 10262 10257 10252 10246 10241 10236 10232 10227 10221 10215 10209 10204 10198 10191 10186 10182 10176 10169 10161 10152 10143 10135 10126 10117 10106 10095 10085 10078 10071 10062 10053 10044 10035 10027 10020 10014 10008 10000 9992 9984 9978 9971 9963 9953 9945 9937 9930 9925 9922 9918 9912
10369 10367 10364 10362 10360 10358 10356 10354 10352 10349 10347 10344 10341 10338 10335 10332 10329 10326 10323 10320 10316 10311 10307 10302 10296 10291 10286 10281 10277 10273 10269 10264 10259 10255 10250 10245 10239 10233 10228 10223 10218 10213 10207 10201 10195 10189 10184 10177 10172 10166 10160 10152 10145 10137 10129 10121 10113 10105 10095 10084 10072 10063 10056 10049 10040 10031 10023 10014 10006 9999 9993 9986 9979 9971 9964 9958 9951 9943 9935 9927 9918 9912 9909 9906 9901
10356 10354 10351 10349 10347 10345 10342 10340 10337 10335 10332 10329 10326 10324 10321 10317 10314 10311 10308 10305 10301 10297 10292 10287 10282 10276 10272 10267 10264 10259 10255 10251 10246 10242 10237 10232 10225 10220 10215 10210 10205 10199 10193 10187 10181 10175 10168 10162 10156 10149 10142 10135 10128 10121 10113 10105 10097 10089 10080 10070 10060 10049 10040 10033 10025 10017 10009 10002 9994 9987 9980 9973 9966 9958 9951 9945 9939 9932 9925 9918 9909 9902 9897 9894 9889
10343 10340 10338 10336 10333 10331 10328 10325 10322 10319 10317 10314 10311 10308 10305 10302 10299 10296 10292 10289 10286 10283 10278 10272 10267 10262 10258 10254 10250 10246 10241 10237 10233 10228 10223 10217 10211 10206 10201 10196 10191 10186 10179 10172 10166 10159 10153 10146 10140 10133 10126 10119 10112 10104 10097 10089 10081 10073 10063 10053 10044 10034 10025 10017 10009 10001 9994 9986 9979 9973 9966 9959 9953 9945 9938 9931 9925 9919 9913 9908 9901 9894 9889 9885 9880
10329 10327 10324 10322 10319 10316 10314 10311 10308 10305 10302 10299 10296 10293 10290 10287 10284 10281 10277 10275 10272 10268 10263 10257 10252 10248 10245 10241 10237 10232 10228 10223 10218 10213 10208 10203 10197 10191 10187 10182 10177 10171 10165 10158 10152 10146 10139 10132 10125 10117 10110 10103 10095 10088 10081 10073 10065 10057 10048 10037 10028 10018 10010 10002 9994 9985 9977 9971 9964 9959 9952 9945 9939 9933 9926 9920 9913 9907 9901 9896 9891 9884 9879 9876 9872
10316 10313 10310 10308 10305 10302 10299 10296 10293 10291 10288 10285 10282 10278 10275 10272 10268 10265 10263 10261 10258 10254 10248 10243 10238 10235 10231 10227 10223 10218 10214 10209 10203 10199 10194 10188 10183 10177 10172 10167 10161 10155 10149 10142 10135 10129 10124 10117 10109 10102 10094 10087 10080 10073 10066 10059 10051 10042 10033 10024 10014 10005 9996 9988 9980 9972 9964 9957 9951 9946 9940 9933 9926 9920 9914 9908 9903 9897 9892 9886 9881 9875 9870 9866 9862
10302 10299 10297 10293 10290 10287 10284 10281 10278 10276 10273 10270 10267 10263 10260 10256 10253 10250 10248 10246 10243 10239 10234 10229 10225 10221 10217 10213 10208 10203 10199 10194 10189 10184 10179 10174 10169 10163 10157 10151 10145 10138 10131 10124 10118 10112 10106 10100 10094 10086 10079 10072 10065 10058 10051 10043 10035 10027 10019 10010 10001 9993 9984 9976 9968 9961 9952 9945 9939 9934 9929 9922 9916 9909 9903 9897 9891 9886 9881 9876 9871 9866 9861 9857 9853
10288 10285 10282 10279 10276 10273 10271 10267 10264 10261 10258 10255 10252 10248 10245 10242 10238 10236 10233 10231 10228 10225 10220 10216 10212 10208 10203 10199 10194 10189 10184 10179 10174 10169 10164 10159 10153 10148 10142 10136 10129 10122 10115 10109 10103 10097 10091 10085 10078 10071 10063 10056 10049 10043 10036 10029 10021 10012 10004 9996 9987 9979 9972 9964 9956 9949 9941 9934 9928 9923 9918 9912 9906 9900 9894 9888 9882 9876 9871 9865 9861 9856 9852 9848 9844
10273 10270 10267 10264 10261 10259 10256 10252 10249 10247 10244 10240 10237 10233 10230 10227 10223 10221 10219 10216 10214 10210 10206 10202 10198 10194 10189 10184 10179 10174 10169 10164 10159 10153 10148 10143 10138 10132 10127 10121 10114 10107 10101 10095 10089 10083 10076 10070 10063 10055 10048 10041 10034 10028 10022 10015 10006 9999 9991 9983 9974 9966 9958 9951 9943 9936 9929 9922 9916 9910 9905 9900 9895 9889 9884 9878 9872 9867 9861 9856 9851 9846 9842 9839 9836
10256 10253 10250 10247 10245 10243 10240 10237 10234 10231 10228 10225 10222 10219 10215 10212 10208 10205 10203 10201 10198 10195 10191 10187 10184 10179 10174 10169 10164 10159 10154 10148 10142 10137 10132 10127 10122 10117 10111 10105 10098 10092 10086 10079 10074 10068 10062 10055 10048 10040 10033 10025 10018 10012 10007 10000 9992 9985 9978 9970 9961 9953 9946 9938 9931 9924 9917 9910 9903 9897 9892 9888 9883 9878 9873 9869 9864 9858 9852 9848 9843 9838 9833 9830 9828
10240 10237 10234 10232 10229 10226 10223 10221 10218 10215 10212 10209 10207 10204 10200 10196 10193 10190 10188 10185 10182 10179 10175 10171 10168 10164 10159 10154 10148 10143 10137 10131 10126 10120 10116 10111 10107 10101 10096 10089 10083 10077 10071 10065 10059 10054 10048 10042 10034 10027 10019 10012 10004 9997 9991 9984 9977 9970 9964 9957 9949 9941 9933 9926 9919 9913 9906 9900 9893 9887 9881 9877 9872 9867 9862 9859 9855 9850 9845 9839 9834 9829 9825 9820 9818
10223 10221 10218 10216 10213 10210 10207 10204 10202 10199 10196 10194 10191 10187 10183 10179 10176 10174 10172 10170 10167 10163 10159 10155 10152 10148 10143 10138 10133 10127 10121 10115 10110 10104 10100 10096 10091 10086 10081 10075 10069 10063 10057 10051 10046 10040 10034 10027 10021 10014 10007 9999 9992 9985 9977 9970 9963 9957 9951 9944 9937 9929 9921 9913 9907 9901 9895 9888 9882 9877 9871 9866 9862 9857 9852 9848 9845 9841 9837 9832 9827 9822 9817 9812 9809
10206 10205 10203 10200 10197 10194 10191 10189 10186 10183 10180 10178 10174 10170 10166 10163 10160 10157 10155 10154 10151 10148 10145 10141 10137 10133 10128 10123 10118 10112 10106 10100 10095 10089 10085 10081 10076 10071 10066 10060 10054 10049 10043 10038 10032 10026 10019 10012 10006 10000 9993 9986 9980 9972 9965 9957 9950 9944 9937 9931 9924 9916 9908 9901 9895 9888 9882 9877 9871 9866 9861 9856 9852 9848 9843 9839 9835 9831 9828 9824 9820 9815 9811 9806 9802
10191 10190 10187 10184 10182 10179 10176 10174 10171 10168 10165 10162 10158 10154 10151 10147 10143 10141 10139 10137 10135 10132 10129 10126 10123 10118 10114 10108 10103 10098 10093 10087 10081 10075 10071 10066 10062 10056 10050 10044 10038 10033 10028 10024 10018 10011 10004 9997 9991 9984 9979 9973 9966 9960 9953 9946 9939 9933 9926 9919 9911 9904 9897 9890 9884 9878 9872 9866 9860 9856 9851 9847 9843 9839 9835 9830 9826 9822 9819 9816 9812 9809 9805 9801 9796
10176 10174 10172 10170 10167 10164 10161 10159 10156 10153 10150 10147 10143 10139 10135 10130 10127 10124 10122 10119 10117 10115 10112 10109 10106 10102 10098 10094 10089 10084 10079 10073 10066 10061 10056 10052 10047 10041 10034 10028 10022 10017 10013 10008 10003 9996 9989 9983 9976 9969 9963 9957 9952 9946 9940 9933 9927 9921 9915 9908 9899 9891 9885 9879 9873 9867 9862 9856 9851 9846 9841 9836 9833 9829 9825 9821 9817 9813 9810 9807 9804 9801 9797 9794 9790
10159 10157 10155 10153 10151 10148 10146 10143 10140 10138 10135 10131 10128 10123 10118 10113 10110 10107 10103 10101 10099 10096 10093 10091 10088 10085 10082 10078 10072 10067 10062 10056 10051 10046 10041 10037 10031 10025 10019 10012 10006 10002 9997 9992 9986 9980 9975 9968 9961 9954 9947 9941 9936 9930 9924 9919 9914 9908 9903 9896 9888 9881 9874 9867 9861 9856 9851 9846 9841 9836 9831 9826 9822 9818 9815 9812 9808 9805 9802 9799 9795 9792 9789 9786 9783
10142 10140 10138 10136 10134 10131 10129 10126 10124 10122 10119 10116 10112 10107 10101 10097 10093 10089 10086 10083 10081 10077 10074 10071 10069 10066 10063 10059 10053 10049 10044 10039 10033 10029 10025 10020 10015 10009 10003 9997 9991 9987 9982 9976 9970 9965 9959 9953 9947 9940 9933 9926 9920 9914 9908 9904 9899 9895 9889 9883 9876 9870 9864 9857 9851 9845 9840 9836 9831 9826 9821 9816 9812 9808 9805 9802 9799 9796 9793 9790 9787 9784 9781 9778 9775
10125 10123 10121 10119 10117 10114 10112 10110 10108 10105 10102 10099 10095 10090 10085 10081 10077 10072 10068 10064 10061 10058 10055 10052 10050 10047 10043 10039 10034 10030 10025 10020 10016 10011 10007 10003 9999 9993 9987 9981 9976 9971 9966 9961 9955 9950 9945 9939 9933 9926 9919 9913 9906 9900 9894 9890 9886 9881 9875 9869 9864 9858 9853 9847 9841 9835 9830 9825 9821 9816 9811 9806 9802 9799 9796 9793 9790 9787 9784 9782 9779 9777 9774 9770 9768
10107 10105 10103 10101 10098 10096 10094 10092 10090 10087 10084 10081 10077 10072 10069 10065 10060 10056 10051 10046 10042 10040 10037 10034 10031 10028 10024 10020 10016 10012 10007 10002 9999 9995 9991 9986 9982 9976 9971 9966 9961 9956 9951 9946 9941 9936 9930 9924 9918 9912 9906 9899 9893 9887 9882 9877 9872 9867 9862 9856 9851 9846 9841 9835 9830 9824 9819 9815 9811 9806 9802 9797 9793 9789 9786 9784 9781 9779 9776 9773 9770 9768 9766 9763 9760
10088 10086 10084 10082 10080 10078 10076 10074 10071 10069 10065 10062 10058 10055 10051 10047 10043 10038 10034 10029 10025 10022 10019 10016 10014 10011 10007 10003 9999 9994 9990 9986 9982 9978 9974 9970 9966 9961 9956 9951 9946 9941 9936 9930 9926 9921 9915 9910 9904 9898 9892 9886 9879 9874 9869 9865 9859 9854 9849 9843 9839 9833 9828 9824 9819 9814 9808 9804 9800 9797 9793 9788 9784 9780 9777 9774 9772 9770 9767 9764 9762 9759 9757 9755 9753
10069 10067 10065 10062 10060 10058 10056 10054 10052 10049 10046 10042 10039 10036 10033 10029 10025 10020 10016 10012 10008 10005 10001 9999 9996 9993 9989 9986 9982 9977 9973 9969 9966 9962 9958 9954 9950 9946 9941 9936 9931 9926 9921 9916 9911 9905 9900 9895 9889 9884 9878 9872 9866 9861 9857 9852 9846 9841 9836 9832 9827 9822 9816 9811 9807 9803 9798 9793 9789 9786 9783 9779 9776 9772 9768 9765 9762 9760 9758 9756 9753 9750 9748 9746 9744
10051 10048 10046 10043 10041 10039 10037 10035 10033 10030 10026 10023 10021 10018 10015 10011 10007 10003 10000 9996 9992 9988 9985 9982 9978 9975 9971 9968 9964 9960 9956 9953 9949 9946 9942 9939 9935 9930 9925 9920 9915 9911 9906 9901 9896 9891 9885 9880 9875 9870 9864 9859 9853 9849 9845 9839 9834 9829 9824 9820 9816 9811 9805 9799 9795 9792 9788 9783 9779 9775 9772 9770 9766 9763 9760 9756 9753 9751 9748 9746 9744 9742 9739 9737 9735